Location: Umburanas
(4.5000°S, 37.9667°W)
Time: 17:28:06
(UTC+00:00)

Daily predictions for brighter satellites

Satellite Brightness Start Highest point End
(mag) Time Altitude Azimuth Time Altitude Azimuth Time Altitude Azimuth
Ariane H10+ 3.5 20:26:33 10° WNW 20:30:30 78° N 20:54:22 10° E
Cosmos 2360 Rocket 2.6 20:38:49 10° S 20:44:08 44° ESE 20:49:27 10° NE
Cosmos 1782 3.6 20:41:39 10° SSE 20:45:17 33° E 20:48:54 10° NNE
Cosmos 2034 Rocket 4.2 20:39:35 10° NNE 20:45:45 54° E 20:51:54 10° SSE
Cosmos 1862 3.3 20:42:44 10° N 20:46:43 77° E 20:50:46 10° S
Cosmos 1633 Rocket 3.0 20:44:08 10° N 20:48:32 72° E 20:52:57 10° S
SL-16 R/B 3.2 20:43:30 10° SSW 20:48:57 50° WNW 20:54:25 10° N
Skynet4D Del rocket 3.7 20:44:14 10° WNW 20:50:21 85° NNE 20:55:52 10° ESE
ARIANE 5 R/B 1.9 20:50:30 10° WNW 20:52:28 57° N 20:57:15 10° E
Sich 1 4.4 20:49:50 10° NNW 20:54:03 45° W 20:58:18 10° SSW
Atlas Centaur 2 3.5 20:45:52 10° WSW 20:54:15 58° NNW 21:01:56 10° NE
NOAA 12 4.1 20:50:19 10° SSE 20:55:39 81° ENE 21:00:58 10° N
Cosmos 2322 Rocket 3.1 20:50:42 10° SSW 20:56:09 51° WNW 21:01:32 10° N
H-2A R/B 4.5 20:53:02 10° S 20:56:41 39° WSW 21:00:18 10° NNW
GPS 2-17 Rocket1 3.2 20:55:07 10° NW 20:59:23 52° NNE 21:03:45 10° E
Cosmos 1400 Rocket 3.2 20:55:45 10° SSW 20:59:46 69° W 21:03:49 10° N
FALCON 9 R/B 0.6 20:59:15 10° WNW 21:00:58 45° SSW 21:03:39 10° SE
YAOGAN 1 3.4 21:00:11 10° SE 21:03:55 29° E 21:07:40 10° NNE
ADEOS Rocket 3.6 20:59:24 10° NE 21:04:11 30° ESE 21:08:56 10° SSE
MDS-1 4.4 21:02:45 10° SW 21:04:36 30° SSE 21:05:48 15° E
Cosmos 1933 Rocket 4.2 21:00:58 10° NNE 21:04:57 35° E 21:08:58 10° SSE
ARIANE 3 DEB 3.8 21:05:50 10° W 21:09:43 74° S 21:18:34 10° E
ATLAS 2AS CENTAUR R/B 3.0 21:04:12 10° SSW 21:11:25 82° WNW 21:19:12 10° NNE
Cosmos 1607 4.0 21:09:04 10° NNW 21:15:22 90° NE 21:21:47 10° SSE
GPS 2-12 Rocket1 3.1 21:10:47 10° WSW 21:15:31 81° NNW 21:18:56 19° ENE
YAOGAN 6 2.5 21:13:57 10° S 21:17:31 86° WSW 21:21:01 10° NNW
Cosmos 1371 Rocket 4.5 21:16:42 10° NNE 21:21:22 35° ENE 21:26:06 10° SE
Cosmos 2297 Rocket 3.4 21:18:10 10° NW 21:23:30 45° WSW 21:28:54 10° S
Cosmos 2227 Rocket 3.2 21:18:46 10° NNW 21:24:11 49° WSW 21:29:37 10° S
Ariane H10-3 4.3 21:21:45 10° NW 21:24:49 27° NNE 21:28:44 19° ENE
FUSE 4.5 21:20:00 10° SW 21:25:08 48° SSE 21:28:23 21° E
Cosmos 2322 3.7 21:22:08 10° S 21:27:48 66° ESE 21:32:41 14° NNE
ARIANE 5 DEB (SYLDA) 1.5 21:25:32 10° WNW 21:28:03 51° N 21:28:08 51° N
FengYun 1-2 T 4.4 21:25:23 10° S 21:30:59 78° WSW 21:36:30 10° NNW
Cosmos 2219 Rocket 2.8 21:28:53 10° S 21:33:55 35° ESE 21:35:52 27° ENE
Cosmos 1470 Rocket 4.4 21:30:51 10° NNW 21:35:10 52° W 21:39:28 10° S
CZ-4 R/B 2.0 21:31:38 10° S 21:35:50 63° WSW 21:39:57 10° NNW
Cosmos 2333 Rocket 2.7 21:31:54 10° S 21:37:11 40° ESE 21:39:18 29° ENE
Meteor 1-27 Rocket 4.1 21:35:32 10° SSE 21:40:41 40° E 21:42:30 31° NE
Cosmos 1939 Rocket 3.0 21:37:04 10° SSE 21:41:04 52° E 21:43:19 24° NNE
ARIANE 5 R/B 4.2 12:19:13 10° W 21:41:19 61° NNW 21:45:27 28° NE
DNEPR-1 R/B 3.9 21:35:57 10° NNW 21:41:54 82° ENE 21:46:42 10° SSE
Centaur AC-112 4.2 21:41:29 10° S 21:42:11 11° S 21:42:47 10° SSE
ATLAS 5 CENTAUR R/B 3.3 21:39:25 10° NW 21:46:17 60° WSW 21:53:17 10° SSE
SAR-Lupe-2 3.5 21:49:17 43° N 21:50:21 82° W 21:53:56 10° SSW
SeaSat 1 2.4 21:47:10 10° SSE 21:52:02 59° ENE 21:56:51 10° N
Ariane H10+ 3.7 21:50:39 10° WNW 21:55:17 52° N 21:57:58 37° ENE
Cosmos 1869 Rocket 4.1 21:57:06 41° SE 21:57:06 41° SE 22:00:24 10° SSE
TIMED 4.3 21:53:46 10° S 21:58:08 81° ESE 21:58:46 64° NNE
Cosmos 1862 Rocket 3.3 21:55:14 10° S 21:59:35 71° E 21:59:47 70° ENE
Cosmos 1092 Rocket 4.2 21:54:55 10° SSE 22:00:56 48° E 22:01:48 45° ENE
Ariane H10 4.1 21:59:08 10° NW 22:00:36 14° NNW 22:00:36 14° NNW
NOAA 11 4.2 21:57:50 10° S 22:03:17 83° WSW 22:08:42 10° NNW
ARIANE 5 DEB (SYLDA) 3.5 21:57:33 10° W 22:03:52 43° NNW 22:03:52 43° NNW
CZ-3A R/B 4.3 20:48:11 10° WNW 22:07:18 81° NNE 22:13:14 30° ESE
Maqsat 3 4.4 22:03:32 10° W 22:08:45 69° N 22:11:21 42° ENE
Cosmos 1624 Rocket 4.3 22:06:29 10° NNW 22:11:44 67° WSW 22:16:57 10° S
CZ-2D R/B 4.5 22:08:49 10° S 22:12:30 41° WSW 22:15:06 17° NW
Cosmos 2056 Rocket 3.8 22:07:34 10° NNW 22:12:45 68° WSW 22:18:04 10° S
Cosmos 1812 3.4 22:09:56 10° S 22:12:58 51° SW 22:12:58 51° SW
Cosmos 2251 Rocket 4.2 22:14:22 10° S 22:18:13 41° SSE 22:18:13 41° SSE
SL-4 R/B 4.0 22:19:34 10° SSW 22:20:48 20° SSW 22:20:48 20° SSW
Cosmos 724 4.3 22:22:30 10° NNW 22:28:14 75° WSW 22:34:04 10° SSE
COSMOS 2428 3.2 22:23:20 10° SSW 22:28:53 57° WNW 22:29:54 49° NW
Cosmos 2237 Rocket 3.5 22:27:38 10° S 22:30:31 28° SSE 22:30:31 28° SSE
BREEZE-M TANK 3.3 22:31:22 10° SW 22:34:33 74° SW 22:34:33 74° SW
Ariane Rocket 4.4 22:46:32 10° SSW 22:51:10 35° WSW 22:52:01 33° W
ARIANE 5 DEB (SYLDA) 4.2 23:01:05 10° W 23:03:36 33° WNW 23:03:36 33° WNW
H-2A ROCKET BODY 4.3 23:11:29 10° WSW 23:14:19 19° W 23:14:19 19° W
Ariane H10-3 3.8 22:12:18 10° W 23:27:10 80° W 23:27:10 80° W
